www.pogodaiklimat.ru
ПОГОДА в Вильнюс аэропорту

Архив погоды в Вильнюс аэропорту (Литва)

Время
(UTC), дата
10 10.08
11 10.08
12 10.08
13 10.08
14 10.08
15 10.08
16 10.08
17 10.08
18 10.08
19 10.08
20 10.08
21 10.08
22 10.08
23 10.08
00 11.08
01 11.08
02 11.08
03 11.08
04 11.08
05 11.08
06 11.08
07 11.08
08 11.08
09 11.08
10 11.08
11 11.08
12 11.08
13 11.08
14 11.08
15 11.08
16 11.08
17 11.08
18 11.08
19 11.08
20 11.08
21 11.08
22 11.08
23 11.08
00 12.08
01 12.08
02 12.08
03 12.08
04 12.08
05 12.08
06 12.08
07 12.08
08 12.08
09 12.08
10 12.08
11 12.08
12 12.08
13 12.08
14 12.08
15 12.08
16 12.08
17 12.08
18 12.08
19 12.08
20 12.08
21 12.08
22 12.08
23 12.08
00 13.08
01 13.08
02 13.08
03 13.08
04 13.08
05 13.08
06 13.08
07 13.08
08 13.08
09 13.08
10 13.08
11 13.08
12 13.08
13 13.08
14 13.08
15 13.08
16 13.08
17 13.08
18 13.08
19 13.08
20 13.08
21 13.08
22 13.08
23 13.08
00 14.08
01 14.08
02 14.08
03 14.08
04 14.08
05 14.08
06 14.08
07 14.08
08 14.08
09 14.08
10 14.08
11 14.08
12 14.08
13 14.08
14 14.08
15 14.08
16 14.08
17 14.08
18 14.08
19 14.08
20 14.08
21 14.08
22 14.08
23 14.08
00 15.08
01 15.08
02 15.08
03 15.08
04 15.08
05 15.08
06 15.08
07 15.08
08 15.08
09 15.08
10 15.08
11 15.08
12 15.08
13 15.08
14 15.08
15 15.08
16 15.08
17 15.08
18 15.08
19 15.08
20 15.08
21 15.08
22 15.08
23 15.08
00 16.08
01 16.08
02 16.08
03 16.08
04 16.08
05 16.08
06 16.08
07 16.08
08 16.08
09 16.08
10 16.08
11 16.08
12 16.08
13 16.08
14 16.08
15 16.08
16 16.08
17 16.08
18 16.08
19 16.08
20 16.08
21 16.08
22 16.08
23 16.08
00 17.08
01 17.08
02 17.08
03 17.08
04 17.08
05 17.08
06 17.08
07 17.08
08 17.08
09 17.08
10 17.08
11 17.08
23 31.08
Ветер
(напр.,м/с)
Видим. Явления Облачность Т
(С)
Тd
(С)
f
(%)
Тe
(С)
Тes
(С)
Комфортность P
(гПа)
Po
(гПа)
Тmin
(С)
Tmax
(С)
R
(мм)
R24
(мм)
S
(см)
С 4 10 км 5/5 1410 м +21.0 +13.0 60 +24 +28 комфорт 1027.0 1003.8
СВ 3 10 км 5/5 1140 м +21.0 +12.0 56 +24 +29 комфорт 1026.0 1002.8
С 3-5
{9}
10 км слаб. ливневой дождь 8/5 1200 м
[Cu med, cong Ac trans]
+21.8 +11.4 50 +24 +28 комфорт 1026.0 1003.7
СВ 2 10 км ливневой дождь 8/8 1410 м
[Cb]
+19.0 +14.0 73 +21 +23 комфорт 1026.0 1002.7
С 5 10 км 5/5 1290 м +21.0 +14.0 64 +24 +26 комфорт 1026.0 1002.9
СВ 3-7
{10}
10 км в посл. час ливневой дождь 8/5 1140 м
[Cb cap Ac trans]
+21.9 +13.0 57 +25 +28 комфорт 1025.3 1003.1
С 2 10 км 2/2 1350 м +21.0 +13.0 60 +24 +27 комфорт 1026.0 1002.9
СВ 3 10 км 5/5 1410 м +20.0 +13.0 64 +22 +23 комфорт 1025.0 1001.8
СВ 2-3
{10}
10 км {ливн. дождь} 8/0
[Ac trans]
+18.9 +13.1 68 +21 +22 комфорт 1025.7 1003.2 +22.3 0.5
С 2 10 км ясно +18.0 +14.0 77 +19 +19 1026.0 1002.6
СВ 1 10 км ясно +17.0 +13.0 77 +18 +18 1026.0 1002.5
СВ 2-3
{3}
10 км 6/0
[Ac trans]
+15.0 +12.0 82 +15 +15 1026.0 1002.4
нст 1 10 км ясно +15.0 +12.0 82 +16 +16 1026.0 1002.4
С 1 10 км ясно +16.0 +13.0 82 +17 +17 1026.0 1002.5
СВ 1-3
{3}
9000 м дымка 4/0
[Ac trans]
+15.0 +13.0 88 +15 +15 1026.0 1002.4
С 1 5000 м дымка ясно +14.0 +12.0 88 +14 +14 1026.0 1002.3
С 1 5000 м дымка ясно +12.0 +12.0 100 +12 +12 1026.0 1002.1
С 2-3
{3}
7000 м дымка {туман} 3/0
[Ac trans]
+11.4 +11.2 100 +11 +11 1027.0 1003.9
С 2 10 км ясно +13.0 +12.0 94 +12 +12 1026.0 1002.2
С 2 10 км ясно +14.0 +12.0 88 +13 +14 1026.0 1002.3
С 2-3
{3}
10 км {туман} ясно +17.0 +13.0 77 +17 +19 1027.0 1003.5 +11.0
СВ 3 10 км ясно +20.0 +13.0 64 +22 +26 комфорт 1027.0 1003.7
В 4 10 км ясно +21.0 +12.0 56 +23 +28 комфорт 1027.0 1003.8
В 3-5
{6}
10 км 3/3 1500 м
[Cu hum]
+21.4 +12.8 60 +24 +31 комфорт 1026.3 1004.0
СВ 3 10 км 5/5 1230 м +22.0 +13.0 57 +25 +30 комфорт 1026.0 1002.9
СВ 4 10 км 8/8 1440 м +22.0 +12.0 53 +24 +26 комфорт 1026.0 1002.9
В 3-5
{7}
10 км 4/4 1500 м
[Cu hum]
+23.2 +11.0 47 +25 +34 комфорт 1025.2 1003.1
В 2 10 км ясно +24.0 +11.0 44 +25 +37 комфорт 1025.0 1002.1
нст 2 10 км ясно +24.0 +11.0 44 +25 +34 комфорт 1025.0 1002.1
В 3-5
{7}
10 км 3/3 1500 м
[Cu hum]
+23.6 +11.8 47 +26 +31 жарко 1024.3 1002.2
СВ 2 10 км ясно +23.0 +12.0 50 +26 +29 жарко 1024.0 1001.0
В 2 10 км ясно +23.0 +12.0 50 +26 +27 жарко 1024.0 1001.0
СВ 2-3
{7}
10 км 3/0
[Ci]
+21.6 +12.2 53 +24 +25 комфорт 1024.2 1002.0 +24.5
нст 1 10 км ясно +21.0 +12.0 56 +24 +24 комфорт 1025.0 1001.9
С 1 10 км ясно +20.0 +12.0 60 +23 +23 комфорт 1025.0 1001.8
СВ 2-3
{4}
10 км 3/0
[Ci fib]
+19.0 +12.2 64 +21 +21 комфорт 1025.2 1002.8
С 1 10 км ясно +18.0 +12.0 68 +19 +19 1025.0 1001.6
нст 1 10 км ясно +17.0 +12.0 72 +18 +18 1026.0 1002.5
В 3-4
{4}
10 км ясно +17.4 +12.0 71 +17 +17 1025.6 1003.0
нст 1 10 км ясно +15.0 +12.0 82 +16 +16 1026.0 1002.4
нст 1 10 км ясно +15.0 +12.0 82 +16 +16 1026.0 1002.4
С 1-2
{3}
10 км ясно +14.2 +12.2 88 +15 +15 1026.0 1003.2
С 1 10 км ясно +15.0 +13.0 88 +15 +15 1026.0 1002.4
нст 1 10 км ясно +18.0 +14.0 77 +19 +20 1026.0 1002.6
В 2-3
{3}
10 км ясно +19.9 +14.2 68 +23 +26 комфорт 1025.9 1003.5 +13.8
В 3 10 км ясно +22.0 +14.0 60 +25 +29 комфорт 1026.0 1002.9
В 3 10 км ясно +23.0 +13.0 53 +26 +32 жарко 1026.0 1003.0
В 4-6
{6}
10 км 3/3 1500 м
[Cu hum]
+23.7 +12.1 47 +26 +34 жарко 1025.5 1003.4
В 4 10 км ясно +25.0 +14.0 50 +27 +35 жарко 1026.0 1003.2
В 3 10 км ясно +25.0 +13.0 47 +27 +38 жарко 1025.0 1002.2
СВ 2-4
{6}
10 км ясно +25.1 +12.4 44 +27 +35 жарко 1024.2 1002.2
В 2 10 км ясно +26.0 +14.0 48 +28 +40 жарко 1024.0 1001.3
В 2 10 км ясно +26.0 +13.0 45 +28 +37 жарко 1024.0 1001.3
В 3-5
{6}
10 км ясно +25.8 +13.6 48 +28 +33 жарко 1023.0 1001.1
В 3 10 км ясно +25.0 +14.0 50 +27 +30 жарко 1023.0 1000.2
В 2 10 км ясно +24.0 +14.0 54 +26 +28 жарко 1023.0 1000.2
В 2-3
{6}
10 км 3/0
[Ci]
+23.1 +14.1 57 +26 +27 жарко 1022.8 1000.7 +26.2
В 2 10 км ясно +22.0 +14.0 60 +25 +25 комфорт 1023.0 1000.0
В 2 10 км ясно +21.0 +14.0 64 +25 +25 комфорт 1024.0 1000.9
В 3-4
{4}
10 км 3/0
[Ci fib]
+20.0 +13.7 68 +23 +23 комфорт 1023.3 1001.0
СВ 2 10 км ясно +19.0 +14.0 73 +21 +21 комфорт 1023.0 999.8
С 1 10 км ясно +18.0 +14.0 77 +19 +19 1023.0 999.7
СВ 3-4
{4}
10 км 3/0
[Ci]
+17.2 +13.6 79 +17 +17 1023.1 1000.6
нст 1 10 км ясно +16.0 +14.0 88 +17 +17 1023.0 999.5
С 2 10 км ясно +16.0 +13.0 82 +16 +16 1023.0 999.5
В 3-4
{4}
10 км 3/0
[Ci fib]
+16.2 +13.3 83 +16 +16 1022.5 999.9
нст 1 10 км ясно +17.0 +13.0 77 +18 +18 1022.0 998.6
В 2 10 км ясно +18.0 +14.0 77 +19 +19 1022.0 998.7
В 3-4
{4}
10 км 3/0
[Ci fib]
+19.9 +14.2 70 +22 +26 комфорт 1022.0 999.7 +14.1
В 3 10 км ясно +22.0 +15.0 64 +25 +29 комфорт 1022.0 999.0
В 4 10 км ясно +23.0 +14.0 57 +26 +31 жарко 1022.0 999.1
В 3-6
{6}
10 км 3/0
[Ci fib]
+24.0 +14.0 54 +26 +35 жарко 1022.0 999.2
В 3 10 км ясно +25.0 +14.0 50 +27 +37 жарко 1021.0 998.3
СВ 4 10 км ясно +25.0 +14.0 50 +27 +36 жарко 1021.0 998.3
В 4-6
{8}
10 км 4/0
[Ci]
+26.0 +12.8 45 +28 +35 жарко 1019.8 998.0
В 5 10 км ясно +26.0 +13.0 45 +28 +34 жарко 1020.0 997.4
СВ 5 10 км ясно +26.0 +13.0 45 +28 +33 жарко 1019.0 996.4
СВ 5-7
{8}
10 км 4/0
[Ci fib]
+26.1 +12.5 45 +28 +31 жарко 1018.5 996.7
В 5 10 км ясно +25.0 +14.0 50 +27 +29 жарко 1019.0 996.3
В 3 10 км ясно +24.0 +13.0 50 +26 +27 жарко 1019.0 996.2
СВ 3-5
{8}
10 км 6/0
[Ac und Ci]
+22.2 +13.3 57 +25 +25 комфорт 1018.5 996.5 +26.6
СВ 3 10 км ясно +21.0 +13.0 60 +24 +24 комфорт 1019.0 996.0
СВ 2 10 км ясно +20.0 +13.0 64 +22 +22 комфорт 1019.0 995.9
СВ 3-5
{5}
10 км 6/0
[Ci fib]
+19.6 +13.5 68 +22 +22 комфорт 1018.4 996.2
СВ 3 10 км ясно +20.0 +14.0 68 +22 +22 комфорт 1019.0 995.9
СВ 3 10 км ясно +19.0 +14.0 73 +20 +20 1018.0 994.9
СВ 3-5
{6}
10 км 6/0
[Ci fib]
+18.6 +13.5 73 +21 +21 комфорт 1017.9 995.6
С 2 10 км ясно +17.0 +14.0 82 +17 +17 1018.0 994.7
СВ 3 10 км ясно +18.0 +14.0 77 +18 +18 1018.0 994.8
СВ 3-4
{6}
10 км 6/0
[Ci fib]
+17.4 +13.7 82 +17 +17 1017.6 995.2
СВ 2 10 км ясно +18.0 +14.0 77 +19 +19 1018.0 994.8
СВ 3 10 км ясно +19.0 +15.0 78 +20 +21 1017.0 993.9
В 3-4
{6}
10 км 9/0
[Ac und]
+19.4 +15.3 78 +21 +23 комфорт 1017.4 995.2 +15.8
СВ 3 10 км ясно +21.0 +17.0 78 +25 +29 комфорт 1017.0 994.1
В 4 10 км ясно +24.0 +18.0 69 +28 +33 душно 1017.0 994.3
В 4-7
{8}
10 км 9/0
[Ac trans]
+23.0 +18.0 73 +28 +35 душно 1017.0 994.3
В 3 10 км ясно +24.0 +19.0 74 +29 +39 душно 1017.0 994.3
В 4 10 км 2/2 1050 м +25.0 +19.0 69 +30 +37 душно 1017.0 994.4
В 4-7
{8}
10 км 9/0
[Ac trans]
+24.8 +18.4 65 +29 +38 душно 1016.2 994.5
В 4 10 км ясно +27.0 +18.0 58 +32 +39 очень
душно
1016.0 993.6
В 4 10 км ясно +26.0 +18.0 61 +30 +36 душно 1016.0 993.5
В 4-6
{8}
10 км 8/0
[Ac trans]
+27.0 +19.0 62 +32 +36 очень
душно
1015.0 992.6
В 4 10 км ясно +26.0 +19.0 65 +31 +33 очень
душно
1015.0 992.5
СВ 4 10 км ясно +25.0 +19.0 69 +30 +31 душно 1015.0 992.5
СВ 3-4
{8}
10 км 8/0
[Ac trans]
+23.4 +18.5 78 +29 +29 душно 1014.9 993.1 +27.1
СВ 3 10 км ясно +23.0 +19.0 78 +29 +29 очень
душно
1015.0 992.3
СВ 3 10 км ясно +22.0 +19.0 83 +27 +27 душно 1015.0 992.2
В 3-4
{5}
10 км 4/0
[Ac trans]
+21.6 +18.3 78 +27 +27 душно 1015.2 993.2
В 3 10 км ясно +22.0 +18.0 78 +27 +27 душно 1015.0 992.2
В 3 10 км ясно +21.0 +17.0 78 +25 +25 комфорт 1015.0 992.1
В 2-4
{6}
10 км 4/0
[Ac trans]
+19.7 +17.3 83 +23 +23 комфорт 1014.9 992.8
В 3 10 км ясно +20.0 +17.0 83 +23 +23 комфорт 1015.0 992.1
В 4 10 км ясно +20.0 +17.0 83 +23 +23 комфорт 1015.0 992.1
В 4-5
{6}
10 км 8/0
[Ac und]
+19.8 +16.1 78 +23 +23 комфорт 1014.8 992.7
В 4 10 км ясно +20.0 +16.0 78 +23 +23 комфорт 1015.0 992.0
В 4 10 км ясно +20.0 +17.0 83 +23 +23 комфорт 1015.0 992.1
В 4-5
{7}
10 км 8/4 1260 м
[Sc Ac trans]
+21.0 +17.0 78 +25 +26 комфорт 1015.0 992.1 +19.4
В 5 10 км ясно +23.0 +18.0 73 +28 +31 душно 1015.0 992.3
В 4 10 км ясно +24.0 +19.0 74 +29 +34 душно 1015.0 992.4
В 4-6
{6}
10 км 8/0
[Ac trans]
+25.2 +18.4 65 +29 +36 душно 1014.1 992.4
В 5 10 км ясно +26.0 +18.0 61 +30 +36 душно 1015.0 992.5
В 4 10 км ясно +27.0 +17.0 54 +31 +39 душно 1014.0 991.6
ЮВ 6-10
{10}
10 км 8/0
[Ac trans Ci]
+28.9 +16.2 45 +32 +37 душно 1013.4 992.0
В 6 10 км ясно +29.0 +16.0 45 +32 +36 душно 1014.0 991.7
В 6 10 км ясно +29.0 +16.0 45 +32 +35 душно 1014.0 991.7
ЮВ 4-6
{11}
10 км 8/3 1500 м
[Cu med, cong Ac und]
+28.5 +16.9 48 +33 +37 очень
душно
1012.9 991.5
ЮВ 4 10 км 2/2 1380 м +27.0 +17.0 54 +31 +33 душно 1014.0 991.6
В 3 10 км 8/8 600 м +25.0 +17.0 61 +29 +29 душно 1014.0 991.5
В 2-4
{11}
10 км 8/3 1380 м
[Cb cap Ac trans]
+24.0 +17.0 65 +28 +28 душно 1014.0 991.4 +29.2
В 3 10 км ясно +24.0 +18.0 69 +28 +28 душно 1014.0 991.4
ЮВ 2 10 км ясно +24.0 +18.0 69 +28 +28 душно 1014.0 991.4
В 4-7
{7}
10 км 8/0
[Ac trans]
+23.8 +17.4 65 +28 +28 душно 1013.8 992.0
В 4 10 км ясно +24.0 +18.0 69 +28 +28 душно 1014.0 991.4
В 2 10 км ясно +23.0 +17.0 69 +28 +28 душно 1014.0 991.3
В 2-4
{7}
10 км 8/0
[Ac trans]
+22.0 +18.0 78 +27 +27 душно 1014.0 991.2
нст 1 10 км ясно +22.0 +17.0 73 +26 +26 душно 1014.0 991.2
СВ 2 10 км ясно +21.0 +17.0 78 +26 +26 душно 1014.0 991.2
СВ 3-5
{5}
10 км 8/0
[Ac trans]
+20.4 +17.1 83 +23 +23 комфорт 1013.4 991.4
нст 1 10 км ясно +21.0 +17.0 78 +26 +26 душно 1014.0 991.2
нст 1 10 км ясно +20.0 +17.0 83 +24 +24 комфорт 1013.0 990.1
В 4-5
{6}
10 км 8/0
[Ac trans Ci]
+21.5 +17.3 73 +26 +28 душно 1012.7 990.8 +20.3
СВ 3 10 км ясно +24.0 +18.0 69 +28 +32 душно 1013.0 990.4
В 4 10 км ясно +26.0 +18.0 61 +30 +35 душно 1013.0 990.6
СВ 5-7
{8}
10 км 9/0
[Ac und]
+25.9 +17.7 61 +30 +37 душно 1012.1 990.5
В 5 10 км ясно +28.0 +18.0 55 +33 +39 очень
душно
1013.0 990.7
В 5 10 км ясно +28.0 +17.0 51 +32 +38 душно 1013.0 990.7
ЮВ 5-7
{9}
10 км 9/0
[Ac trans]
+27.7 +17.6 55 +33 +41 очень
душно
1012.4 990.9
В 3 10 км ясно +27.0 +17.0 54 +31 +40 душно 1013.0 990.6
В 4 10 км ясно +28.0 +17.0 51 +32 +37 душно 1013.0 990.7
В 4-6
{8}
10 км 8/0
[Ac trans Ci]
+27.7 +17.6 55 +33 +37 очень
душно
1012.0 990.6
В 4 10 км ясно +27.0 +18.0 58 +32 +34 очень
душно
1013.0 990.6
В 4 10 км ясно +26.0 +18.0 61 +30 +31 душно 1013.0 990.6
ЮВ 2-4
{8}
10 км 8/0
[Ac und Ci fib]
+23.8 +16.6 65 +28 +28 душно 1012.9 991.1 +28.7
В 3 10 км ясно +24.0 +17.0 65 +28 +28 душно 1014.0 991.4
В 3 10 км ясно +23.0 +17.0 69 +28 +28 душно 1014.0 991.3
ЮВ 3-5
{6}
10 км в посл. час дождь 9/0
[As op]
+22.0 +18.0 78 +27 +27 душно 1014.0 991.2
В 3 10 км ясно +22.0 +17.0 73 +26 +26 душно 1014.0 991.2
В 3 10 км ясно +21.0 +17.0 78 +25 +25 комфорт 1014.0 991.2
В 2-3
{7}
10 км {дождь} 9/0
[Ac trans]
+20.3 +16.7 83 +23 +23 комфорт 1014.1 992.0
В 2 10 км ясно +20.0 +17.0 83 +23 +23 комфорт 1014.0 991.1
В 2 10 км ясно +20.0 +16.0 78 +23 +23 комфорт 1014.0 991.1
В 2-3
{5}
10 км 6/0
[Ac trans]
+18.9 +15.7 83 +21 +21 комфорт 1013.6 991.4
В 2 10 км ясно +19.0 +16.0 83 +21 +21 комфорт 1014.0 991.0
нст 1 10 км ясно +20.0 +16.0 78 +24 +24 комфорт 1014.0 991.1
В 2-3
{5}
10 км 6/0
[Ac trans]
+20.7 +15.9 73 +25 +27 комфорт 1013.7 991.7 +18.5 0.0
В 3 10 км ясно +23.0 +15.0 61 +27 +30 душно 1014.0 991.3
В 3 10 км ясно +24.0 +15.0 57 +27 +32 жарко 1014.0 991.4
В 4 10 км ясно +26.0 +15.0 51 +29 +35 душно 1014.0 991.5
В 3 10 км ясно +27.0 +15.0 48 +30 +39 душно 1014.0 991.6
ЮВ 4 10 км ясно +28.0 +15.0 45 +31 +39 душно 1014.0 991.7
ЮВ 4 10 км 8/8 240 м +18.0 +17.0 94 +18 +18 1010.0 987.0
Местоположение метеостанции Вильнюс аэропорт (Литва): широта 54.63 долгота 25.28 высота над уровнем моря 197 м.
В архиве по умолчанию представлена погода в Вильнюс аэропорту за последнюю неделю. Архивные данные за месяц целиком и за предыдущие месяцы, начиная с января 2011 года, Вы можете получить, выбрав интересующий диапазон дат из раскрывающегося списка и нажав кнопку "Найти!".
*Определитесь, кто Вы:
Внимание! Время в таблицах - всемирное. Для получения местного времени необходимо прибавить поправку, которая равна 2 ч.
Смотрите также архив погоды в соседних городах и на ближайших метеорологических станциях:
Партнеры нашего сайта:      
Пояснения к столбцам:
  • Ветер - указаны скорость ветра в м/с - средняя за 10 мин, порывы в срок и между сроками (в фигурных скобках) и направление, откуда дует ветер: С - северный,
  • СВ - северо-восточный, В - восточный, ЮВ - юго-восточный, Ю - южный, ЮЗ - юго-западный, З - западный, СЗ - северо-западный.
  • Видимость - горизонтальная дальность видимости в метрах или километрах. При видимости от 1 до 10 км при отсутствии осадков обычно наблюдается дымка, при ухудшении видимости до 1 км и менее - туман. В сухую погоду видимость может ухудшаться дымом, пылью или мглою.
  • Явления - указаны атмосферные явления, наблюдавшиеся в срок или в последний час перед сроком; фигурными скобками обозначены явления, наблюдавшиеся между сроками (за 1-3 часа до срока); квадратными скобками обозначены град или гололедные отложения с указанием их диаметра в мм.
  • Облачность - указаны через наклонную черту общая и нижняя облачность в баллах и высота нижней границы облаков в метрах; квадратными скобками обозначены формы облаков: Ci - перистые, Cs - перисто-слоистые, Cc - перисто-кучевые, Ac - высококучевые, As - высокослоистые, Sc - слоисто-кучевые, Ns - слоисто-дождевые, Cu - кучевые, Cb - кучево-дождевые. Подробнее классификацию облаков см. в Атласе облаков (PDF).
  • T - Температура воздуха - температура, измеренная на высоте 2 м над землей.
  • Td - Температура точки росы - температура, при понижении до которой содержащийся в воздухе водяной пар достигнет насыщения.
  • f - Относительная влажность воздуха - влажноcть воздуха, измеренная на высоте 2 м над землей.
  • Te - Эффективная температура - температура, которую ощущает одетый по сезону человек в тени. Характеристика душности погоды. При расчете учитывается влияние влажности воздуха и скорости ветра на теплоощущения человека.
  • Tes - Эффективная температура на солнце - температура, которую ощущает человек, с поправкой на солнечный нагрев. Характеристика знойности погоды. Зависит от высоты солнца над горизонтом, облачности и скорости ветра. Ночью, в пасмурную погоду, а также при ветре 12 м/с и более поправка равна нулю.
  • P - Атмосферное давление - приведенное к уровню моря атмосферное давление.
  • Po - Атмосферное давление - измеренное на уровне метеостанции атмосферное давление.
  • Tmin - Минимальная температура - минимум температуры воздуха на высоте 2 м над землей.
  • Tmax - Максимальная температура - максимум температуры воздуха на высоте 2 м над землей.
  • R - Количество осадков - Количество выпавших осадков за период времени, мм. При наведении курсора мыши на число - период времени, за который выпало указанное количество осадков.
  • R24 - Количество осадков - Количество выпавших осадков за 24 часа, мм.
  • S - Снежный покров - Высота снежного покрова, см. При наведении курсора мыши на число - состояние снежного покрова и степень покрытия местности в баллах.